| time (UTC) | temp C | wind direction | speed KPH | gust KPH | rain 1hr cm | rain 24hr cm | rain mn cm | humidity % | barometer mb |
| 20260502181551 | 21 | 355 | 8.0 | 25.7 | 0.00 | 4.11 | 0.00 | 53 | 1019.3 |
| 20260502163118 | 20 | 1 | 12.9 | 25.7 | 0.00 | 5.23 | 0.00 | 61 | 1019.9 |
| 20260502161528 | 20 | 326 | 8.0 | 20.9 | 0.00 | 5.23 | 0.00 | 65 | 1019.9 |
| 20260502160111 | 18 | 64 | 11.3 | 24.1 | 0.00 | 5.23 | 0.00 | 66 | 1019.8 |
| 20260502151551 | 17 | 75 | 3.2 | 24.1 | 0.00 | 5.28 | 0.00 | 75 | 1019.8 |
| 20260502123107 | 12 | 334 | 4.8 | 12.9 | 0.00 | 5.46 | 0.00 | 92 | 1018.2 |
| 20260502121536 | 12 | 26 | 3.2 | 11.3 | 0.00 | 5.46 | 0.00 | 92 | 1017.9 |
| 20260502114633 | 11 | 333 | 3.2 | 6.4 | 0.00 | 5.49 | 0.00 | 92 | 1017.9 |
| 20260502113025 | 11 | 354 | 1.6 | 8.0 | 0.00 | 5.49 | 0.00 | 92 | 1017.6 |
| 20260502111605 | 11 | 58 | 1.6 | 14.5 | 0.00 | 5.49 | 0.00 | 92 | 1017.3 |
| 20260502110034 | 11 | 49 | 3.2 | 11.3 | 0.00 | 5.49 | 0.00 | 91 | 1017.1 |
| 20260502104612 | 11 | 360 | 8.0 | 12.9 | 0.00 | 5.61 | 0.00 | 91 | 1016.9 |
| 20260502103043 | 12 | 315 | 4.8 | 12.9 | 0.00 | 5.61 | 0.00 | 91 | 1016.8 |
| 20260502101511 | 12 | 319 | 4.8 | 9.7 | 0.00 | 5.61 | 0.00 | 91 | 1016.6 |
| 20260502100108 | 12 | 330 | 3.2 | 9.7 | 0.00 | 5.61 | 0.00 | 90 | 1016.2 |
| 20260502091530 | 12 | 40 | 6.4 | 12.9 | 0.00 | 5.82 | 0.00 | 89 | 1015.8 |
| 20260502071529 | 12 | 1 | 4.8 | 16.1 | 0.00 | 6.58 | 0.00 | 91 | 1015.4 |
| 20260502070008 | 12 | 13 | 4.8 | 14.5 | 0.00 | 6.58 | 0.00 | 92 | 1015.4 |
| 20260502064613 | 12 | 11 | 11.3 | 25.7 | 0.00 | 6.60 | 0.00 | 92 | 1015.3 |
| 20260502063021 | 12 | 352 | 9.7 | 19.3 | 0.00 | 6.60 | 0.00 | 92 | 1015.1 |
| 20260502061604 | 13 | 343 | 6.4 | 22.5 | 0.00 | 6.60 | 0.00 | 92 | 1015.1 |
| 20260502060045 | 13 | 3 | 11.3 | 22.5 | 0.00 | 6.60 | 0.00 | 92 | 1014.9 |
| 20260502054513 | 13 | 49 | 12.9 | 24.1 | 0.00 | 7.26 | 0.00 | 93 | 1015.0 |
| 20260502053100 | 13 | 354 | 8.0 | 24.1 | 0.00 | 7.26 | 0.00 | 93 | 1015.0 |
| 20260502051532 | 13 | 60 | 14.5 | 29.0 | 0.00 | 7.26 | 0.00 | 93 | 1015.0 |
| 20260502050108 | 13 | 30 | 11.3 | 22.5 | 0.00 | 7.26 | 0.00 | 94 | 1015.1 |
| 20260502044540 | 13 | 39 | 11.3 | 24.1 | 0.00 | 7.26 | 7.26 | 94 | 1015.1 |
| 20260502043009 | 13 | 17 | 8.0 | 24.1 | 0.00 | 7.26 | 7.26 | 95 | 1015.0 |
| 20260502041600 | 13 | 53 | 8.0 | 19.3 | 0.03 | 7.26 | 7.26 | 95 | 1015.0 |
| 20260502040024 | 13 | 13 | 6.4 | 12.9 | 0.03 | 7.26 | 7.26 | 95 | 1015.0 |
| 20260502034603 | 13 | 31 | 9.7 | 24.1 | 0.03 | 7.26 | 7.26 | 95 | 1014.6 |
| 20260502033035 | 13 | 354 | 9.7 | 27.4 | 0.03 | 7.26 | 7.26 | 95 | 1014.5 |
| 20260502031508 | 13 | 2 | 12.9 | 24.1 | 0.05 | 7.24 | 7.24 | 96 | 1013.7 |
| 20260502030050 | 13 | 54 | 11.3 | 25.7 | 0.08 | 7.24 | 7.24 | 96 | 1013.4 |
| 20260502024521 | 13 | 6 | 11.3 | 25.7 | 0.10 | 7.24 | 7.24 | 96 | 1013.2 |
| 20260502023107 | 13 | 61 | 9.7 | 27.4 | 0.10 | 7.24 | 7.24 | 96 | 1013.0 |
| 20260502021538 | 13 | 227 | 8.0 | 24.1 | 0.10 | 7.19 | 7.19 | 96 | 1013.1 |
| 20260502020009 | 14 | 37 | 8.0 | 19.3 | 0.13 | 7.16 | 7.16 | 96 | 1013.1 |
| 20260502014556 | 14 | 333 | 11.3 | 20.9 | 0.10 | 7.14 | 7.14 | 96 | 1012.6 |
| 20260502013032 | 14 | 4 | 8.0 | 17.7 | 0.10 | 7.14 | 7.14 | 96 | 1012.1 |
| 20260502011610 | 14 | 18 | 11.3 | 19.3 | 0.10 | 7.09 | 7.09 | 96 | 1012.0 |
| 20260502010041 | 14 | 23 | 8.0 | 24.1 | 0.18 | 7.04 | 7.04 | 96 | 1012.1 |
| 20260502004521 | 14 | 307 | 9.7 | 20.9 | 0.28 | 7.04 | 7.04 | 96 | 1011.0 |
| 20260502003053 | 15 | 46 | 6.4 | 16.1 | 0.36 | 7.04 | 7.04 | 96 | 1010.9 |
| 20260502001520 | 15 | 34 | 8.0 | 20.9 | 0.36 | 6.99 | 6.99 | 96 | 1011.0 |
| 20260502000100 | 14 | 49 | 8.0 | 20.9 | 0.25 | 6.86 | 6.86 | 96 | 1011.2 |
| 20260501234527 | 15 | 61 | 11.3 | 32.2 | 0.15 | 6.76 | 6.76 | 96 | 1010.0 |
| 20260501233110 | 15 | 51 | 12.9 | 25.7 | 0.10 | 6.68 | 6.68 | 96 | 1009.8 |
| 20260501231538 | 15 | 1 | 11.3 | 22.5 | 0.05 | 6.63 | 6.63 | 96 | 1010.6 |
| 20260501230009 | 15 | 73 | 12.9 | 24.1 | 0.10 | 6.60 | 6.60 | 96 | 1010.2 |
| 20260501224544 | 15 | 36 | 11.3 | 27.4 | 0.36 | 6.60 | 6.60 | 97 | 1009.8 |
| 20260501223014 | 15 | 53 | 12.9 | 30.6 | 0.43 | 6.58 | 6.58 | 96 | 1009.7 |
| 20260501221555 | 15 | 16 | 12.9 | 25.7 | 0.46 | 6.58 | 6.58 | 97 | 1010.1 |
| 20260501220034 | 15 | 55 | 8.0 | 20.9 | 0.41 | 6.45 | 6.45 | 97 | 1010.3 |
| 20260501214607 | 16 | 15 | 9.7 | 20.9 | 0.25 | 6.27 | 6.27 | 97 | 1010.1 |
| 20260501213037 | 16 | 14 | 9.7 | 17.7 | 0.38 | 6.15 | 6.15 | 97 | 1010.4 |
| 20260501211510 | 16 | 49 | 6.4 | 16.1 | 0.71 | 6.10 | 6.10 | 97 | 1009.9 |
| 20260501210056 | 16 | 51 | 11.3 | 24.1 | 0.79 | 6.07 | 6.07 | 97 | 1008.7 |
| 20260501204538 | 16 | 44 | 14.5 | 29.0 | 0.86 | 5.99 | 5.99 | 97 | 1008.7 |
| 20260501203109 | 16 | 53 | 4.8 | 11.3 | 0.71 | 5.77 | 5.77 | 97 | 1009.6 |
| 20260501201544 | 16 | 37 | 3.2 | 12.9 | 0.28 | 5.33 | 5.33 | 97 | 1008.5 |
| 20260501200017 | 16 | 84 | 6.4 | 14.5 | 0.25 | 5.28 | 5.28 | 97 | 1008.5 |
| 20260501194557 | 16 | 13 | 4.8 | 16.1 | 1.04 | 5.13 | 5.13 | 96 | 1008.6 |
| 20260501193025 | 16 | 51 | 4.8 | 17.7 | 1.07 | 5.08 | 5.08 | 96 | 1008.3 |
| 20260501191503 | 16 | 45 | 8.0 | 20.9 | 1.65 | 5.05 | 5.05 | 96 | 1008.6 |
| 20260501190047 | 16 | 77 | 12.9 | 33.8 | 1.88 | 5.03 | 5.03 | 96 | 1008.1 |
| 20260501184528 | 16 | 258 | 3.2 | 14.5 | 0.99 | 4.06 | 4.06 | 96 | 1010.8 |
| 20260501183104 | 16 | 84 | 9.7 | 30.6 | 0.94 | 4.01 | 4.01 | 96 | 1007.8 |